This demonstration page uses our WeatherBlox Daily Observations layout. Learn more.

Left ArrowRight Arrow

44.8408, -93.29828

Hourly Observations for September 22, 2017

Temp ( °F °C ) Dew Point ( °F °C ) Humidity (%) Winds ( mph kmh ) Pressure ( in mb ) Visibility ( mi km ) Precip ( " mm )
12:53 am 00:53 Mostly Clear 76 24.4 69 20.6 79 79 SSE 12 19 29.82 1010 10 16 0.00 0.00
1:53 am 01:53 Partly Cloudy 76 24.4 70 21.1 82 82 SSE 12 19 29.82 1010 10 16 0.00 0.00
2:53 am 02:53 Clear 75 23.9 70 21.1 84 84 SE 9 15 29.80 1009 10 16 0.00 0.00
3:53 am 03:53 Clear 74 23.3 70 21.1 88 88 SE 10 17 29.81 1009 10 16 0.00 0.00
4:53 am 04:53 Clear 74 23.3 70 21.1 88 88 SSE 15 24 29.81 1010 10 16 0.00 0.00
5:53 am 05:53 Partly Cloudy 73 22.8 70 21.1 90 90 SSE 12 19 29.80 1009 10 16 0.00 0.00
6:53 am 06:53 Mostly Cloudy 75 23.9 71 21.7 88 88 SSE 9 15 29.82 1010 9 14 0.00 0.00
7:53 am 07:53 Mostly Cloudy 74 23.3 71 21.7 91 91 SSE 7 11 29.83 1010 9 14 0.00 0.00
8:53 am 08:53 Mostly Cloudy 76 24.4 72 22.2 88 88 SSE 9 15 29.83 1010 9 14 0.00 0.00
9:53 am 09:53 Mostly Cloudy 79 26.1 72 22.2 79 79 S 8 13 29.83 1010 9 14 0.00 0.00
10:53 am 10:53 Mostly Cloudy 81 27.2 72 22.2 74 74 S 9 15 29.83 1010 10 16 0.00 0.00
11:53 am 11:53 Partly Cloudy 85 29.4 73 22.8 68 68 VRB 5 7 29.82 1010 10 16 0.00 0.00
12:53 pm 12:53 Mostly Sunny 89 31.7 73 22.8 59 59 S 9 15 29.80 1009 10 16 0.00 0.00
1:53 pm 13:53 Mostly Sunny 91 32.8 72 22.2 54 54 S 15 24 29.79 1009 10 16 0.00 0.00
2:53 pm 14:53 Mostly Sunny 93 33.9 72 22.2 50 50 S 14 22 29.78 1008 10 16 0.00 0.00
3:53 pm 15:53 Mostly Sunny 94 34.4 71 21.7 48 48 S 21 33 29.77 1008 10 16 0.00 0.00
4:53 pm 16:53 Mostly Sunny 94 34.4 70 21.1 46 46 S 20 31 29.77 1008 10 16 0.00 0.00
5:53 pm 17:53 Partly Cloudy 93 33.9 70 21.1 47 47 S 14 22 29.77 1008 10 16 0.00 0.00
6:53 pm 18:53 Partly Cloudy 89 31.7 69 20.6 52 52 SSE 13 20 29.77 1008 10 16 0.00 0.00
7:53 pm 19:53 Partly Cloudy 88 31.1 68 20 52 52 SSE 12 19 29.79 1009 10 16 0.00 0.00
8:53 pm 20:53 Partly Cloudy 86 30 69 20.6 57 57 S 12 19 29.80 1009 10 16 0.00 0.00
9:53 pm 21:53 Mostly Cloudy 85 29.4 69 20.6 59 59 S 17 28 29.82 1010 10 16 0.00 0.00
10:53 pm 22:53 Mostly Cloudy 85 29.4 69 20.6 59 59 S 18 30 29.82 1010 10 16 0.00 0.00
11:53 pm 23:53 Mostly Cloudy 83 28.3 69 20.6 63 63 S 10 17 29.84 1010 10 16 0.00 0.00

Powered by AerisWeather